ELECTRON KICK STAGE R/B

Last updated on Thu Jul 03 2025 00:02:09 GMT+0000 (Coordinated Universal Time)

1 64692U 25140B 25183.60836221 .00000911 00000+0 14952-3 0 9990 2 64692 95.9843 30.9274 0012643 289.4207 70.5639 14.72025666 638

Satellite not in orbit